Location: Carri�res
(48.9069°N, 2.1792°E)
Time: 07:21:04
(UTC+00:00)

Daily predictions for brighter satellites

Satellite Brightness Start Highest point End
(mag) Time Altitude Azimuth Time Altitude Azimuth Time Altitude Azimuth
Cosmos 1634 Rocket 4.2 16:53:47 10° N 16:59:48 48° ENE 17:05:50 10° SSE
Okean-O 4.1 17:01:34 10° E 17:04:20 16° ENE 17:07:06 10° NNE
AQUARIUS 4.1 17:00:54 10° SSE 17:05:22 68° ENE 17:09:51 10° N
COSMO-SKYMED 1 3.9 17:04:02 10° NE 17:07:22 21° E 17:10:41 10° SE
Cosmos 1536 Rocket 3.6 17:04:53 10° S 17:09:12 62° E 17:13:34 10° NNE
Cosmos 2227 Rocket 3.1 17:04:02 10° SW 17:09:29 48° NW 17:15:00 10° NNE
Landsat 5 3.3 17:05:42 10° NNE 17:09:45 78° ESE 17:13:38 10° S
SeaSat 1 4.0 17:06:46 10° NNE 17:11:03 30° NW 17:15:19 10° WSW
Cosmos 1674 2.7 17:07:33 10° S 17:11:22 85° E 17:15:15 10° N
RESURS DK-1 3.0 17:08:07 10° S 17:11:58 38° ESE 17:15:50 10° NE
Okean O Rocket 1.6 17:07:58 10° SSE 17:12:23 70° ENE 17:16:49 10° N
ERS-2 4.0 17:12:07 10° ENE 17:13:57 13° E 17:15:47 10° ESE
CZ-4C R/B 2.8 17:12:47 10° NNE 17:15:57 81° WNW 17:19:05 10° SSW
CZ-4B R/B 2.6 17:13:26 10° NE 17:16:15 23° E 17:19:00 10° SSE
SL-24 R/B 4.1 17:16:35 10° SSE 17:20:54 90° ENE 17:25:27 10° NNW
CZ-4C R/B 2.2 17:17:01 10° SW 17:22:02 88° NW 17:28:10 10° NE
CZ-4B R/B 3.4 17:19:13 10° SSE 17:24:44 81° WSW 17:30:23 10° NNW
Cosmos 1844 Rocket 4.5 17:23:45 10° ESE 17:24:56 11° E 17:25:29 10° E
USA 234 3.8 17:19:06 10° ENE 17:25:16 45° N 17:31:26 10° WNW
Tsikada Rocket 4.0 17:18:57 10° S 17:25:19 87° E 17:31:38 10° N
FengYun 1-2 T 4.3 17:20:30 10° SSE 17:26:03 86° ENE 17:31:42 10° NNW
Cosmos 1400 Rocket 3.5 17:22:28 10° NNW 17:26:33 61° W 17:30:34 10° S
CZ-2D R/B 3.7 17:25:31 10° SE 17:29:06 37° ENE 17:32:41 10° N
Cosmos 1354 Rocket 4.3 17:25:08 10° S 17:30:16 51° ESE 17:35:27 10° NNE
Meteor 2-5 Rocket 3.8 17:25:07 10° S 17:30:33 55° E 17:35:57 10° NNE
SL-14 R/B 3.4 17:27:18 10° S 17:31:03 50° E 17:34:51 10° NNE
Cosmos 1603 3.7 17:25:49 10° NNW 17:31:33 78° ENE 17:37:17 10° SSE
Cosmos 1025 Rocket 3.9 17:27:46 10° SSW 17:31:58 52° WNW 17:36:15 10° N
IRS-1C Rocket 4.3 17:28:48 10° SE 17:33:47 45° ENE 17:38:47 10° N
Cosmos 2297 Rocket 3.8 17:29:47 10° WSW 17:34:40 29° NW 17:39:35 10° NNE
Cosmos 2142 Rocket 4.5 17:30:17 10° N 17:36:27 62° ENE 17:42:31 10° SSE
COSMOS 2455 4.0 17:32:53 10° SSE 17:37:27 23° ESE 17:40:26 16° ENE
ATLAS 3B R/B 3.1 17:31:34 10° NW 17:38:30 74° SW 17:45:42 10° SSE
Cosmos 1486 Rocket 4.3 17:36:17 10° SSW 17:41:31 70° WNW 17:46:45 10° NNE
Cosmos 1606 Rocket 3.5 17:38:58 10° N 17:43:17 58° ENE 17:47:37 10° SSE
YAOGAN 1 3.2 17:40:49 10° SE 17:44:40 32° ENE 17:48:33 10° N
Cosmos 968 Rocket 3.9 17:39:43 10° SW 17:44:47 62° WNW 17:49:52 10° NNE
Cosmos 1892 Rocket 4.3 17:41:08 10° SSE 17:44:58 31° E 17:48:30 12° NNE
H-2A R/B 2.5 17:41:29 10° N 17:45:58 68° WNW 17:50:21 10° SSW
H-2A R/B 4.3 17:45:15 10° SSW 17:48:51 33° W 17:52:36 10° NNW
Cosmos 1626 2.3 17:46:06 10° SSW 17:49:46 72° W 17:53:29 10° N
CZ-2C R/B 3.1 17:45:01 10° SSE 17:50:09 62° ENE 17:55:38 10° N
CSL-04 Rocket 4.4 17:45:51 10° ESE 17:50:28 30° ENE 17:55:10 10° N
Cosmos 1939 Rocket 2.9 17:46:34 10° SSE 17:50:43 86° WSW 17:54:51 10° NNW
CZ-4 R/B 4.4 17:48:09 10° SSE 17:52:13 60° ENE 17:56:19 10° N
CSL-04 DEB 4.4 17:50:38 10° NNE 17:54:56 86° ESE 17:59:04 10° SSW
SKYMED 2 3.6 17:51:22 10° NNE 17:55:42 61° E 18:00:00 10° S
CZ-4 R/B 1.6 17:52:50 10° SE 17:56:48 46° ENE 18:00:43 10° N
MOS 1 Rocket 3.3 17:53:05 10° NNE 17:57:19 46° E 18:01:26 10° S
ATLAS 5 CENTAUR R/B 1.4 17:54:30 10° SSW 17:58:28 67° SE 18:01:05 23° NE
BREEZE-M DEB (TANK) 4.3 17:57:05 10° W 18:00:20 26° SW 18:02:23 10° SSE
CREW DRAGON DEMO-1 DEB 3.2 17:59:47 10° WNW 18:02:36 45° N 18:03:09 39° NE
Meteor 2-10 Rocket 3.7 17:58:17 10° N 18:03:50 55° ENE 18:09:07 10° SSE
Feng Yun 1-1 Rocket 4.3 18:02:01 10° SSE 18:07:26 77° WSW 18:12:58 10° NNW
Cosmos 2058 Rocket 3.2 18:03:32 10° N 18:07:57 53° ENE 18:12:20 10° SSE
Cosmos 2228 3.2 18:03:59 10° NNW 18:08:14 71° W 18:12:28 10° S
Cosmos 1503 Rocket 4.3 18:03:31 10° SSW 18:08:51 72° WNW 18:14:16 10° NNE
Cosmos 1315 Rocket 3.4 18:05:58 10° NNW 18:09:51 59° W 18:13:47 10° S
SJ 16-02 3.2 18:07:28 10° SE 18:08:46 15° SE 18:08:46 15° SE
H-2A R/B 2.0 18:06:33 10° SSE 18:11:23 56° ENE 18:16:21 10° N
Cosmos 2263 Rocket 2.3 18:06:17 10° SSW 18:11:59 81° WNW 18:17:04 13° NNE
SAR-Lupe-4 3.8 18:12:53 42° ENE 18:13:19 44° E 18:16:46 10° S
Okean 1-7 Rocket 4.0 18:10:05 10° SSE 18:14:21 42° E 18:16:13 28° NE
EXPRESS MD2 4.2 18:05:45 10° WNW 18:14:21 79° SSW 18:16:50 27° ESE
Cosmos 1455 4.1 18:12:21 10° N 18:13:19 16° NNE 18:13:19 16° NNE
Meteor 1-24 Rocket 3.6 18:11:32 10° SSW 18:16:56 82° WNW 18:22:16 10° N
Cosmos 1300 3.8 18:14:31 10° NNW 18:18:10 45° W 18:21:49 10° SSW
OPS 8737 4.3 18:16:13 10° NW 18:19:18 71° NE 18:20:11 47° ESE
Cosmos 1689 Rocket 3.8 18:22:28 21° SSE 18:22:28 21° SSE 18:23:38 10° S
SAR-Lupe-1 4.0 18:24:36 59° E 18:24:49 60° ESE 18:28:20 10° S
NOSS 3-4 (A) 4.5 18:19:27 10° W 18:25:01 38° NNW 18:29:31 17° NNE
NOSS 3-4 (C) 4.5 18:19:32 10° W 18:25:07 39° NNW 18:29:37 17° NNE
GENESIS II 4.2 18:21:29 10° SW 18:25:30 87° NW 18:26:42 44° NE
Cosmos 1943 4.3 18:22:01 10° NW 18:27:28 47° WSW 18:32:49 10° S
Cosmos 1680 Rocket 4.2 18:25:18 10° N 18:29:33 32° NE 18:29:33 32° NE
Helios 1A Rocket 2.8 18:26:54 10° SSE 18:31:02 76° ENE 18:35:11 10° NNW
Meteor 2-13 Rocket 4.4 18:25:16 10° S 18:31:12 57° E 18:37:13 10° NNE
Cosmos 1726 Rocket 4.1 18:27:13 10° NNW 18:31:29 58° W 18:35:46 10° S
USA 267 3.9 18:29:51 31° E 18:31:44 37° SE 18:37:41 10° SSW
SJ-11-01 4.1 18:28:46 10° SSE 18:33:28 79° ENE 18:38:11 10° NNW
ARGOS 3.0 18:28:47 10° SSE 18:34:05 64° ENE 18:39:24 10° N
CSL-04 Debris 4.0 18:30:04 10° SSE 18:35:24 68° ENE 18:40:47 10° N
Lacrosse 5 1.9 18:31:40 10° NW 18:36:42 61° NNE 18:37:41 50° ENE
Meteor 1-21 Rocket 4.3 18:32:13 10° SSE 18:37:28 46° E 18:38:13 44° ENE
Cosmos 2082 Rocket 4.1 18:35:38 10° N 18:37:45 14° NNE 18:37:45 14° NNE
Okean-O 2.8 18:35:52 10° S 18:40:17 71° WSW 18:44:45 10° NNW
USA 281 4.3 18:42:04 25° NE 18:42:04 25° NE 18:46:49 10° N
CZ-2C R/B 3.4 18:43:09 35° SE 18:43:09 35° SE 18:47:05 10° SSE
ATLAS 2AS CENTAUR R/B 3.8 18:35:06 10° WSW 18:42:42 46° NNW 18:48:01 19° NNE
COSMO-SKYMED 1 3.6 18:39:35 10° N 18:43:45 46° WNW 18:47:54 10° SW
Cosmos 1833 Rocket 4.2 18:39:37 10° N 18:42:29 20° NNE 18:42:29 20° NNE
ERS-2 2.8 18:46:36 35° NNW 18:47:49 54° WNW 18:51:22 10° SSW
CZ-4B R/B 3.6 18:45:36 10° N 18:48:25 26° WNW 18:51:15 10° SW
RESURS DK-1 4.2 18:46:30 10° WSW 18:50:05 28° NW 18:52:06 19° N
Cosmos 158 Rocket 3.9 18:45:36 10° NNW 18:50:53 64° ENE 18:51:25 60° E
BREEZE-M DEB (TANK) 4.5 18:50:58 10° W 18:51:44 19° W 18:51:44 19° W
Meteor 2-1 Rocket 4.3 19:01:49 10° NNW 19:07:26 73° W 19:12:55 10° S
Cosmos 1844 Rocket 2.7 19:02:05 10° SSW 19:07:13 63° SE 19:07:13 63° SE
USA 234 3.2 19:06:27 56° E 19:07:49 72° NNE 19:14:22 10° NW
CZ-4C R/B 3.7 19:06:39 10° W 19:11:27 30° NNW 19:13:43 24° NNE
Iridium 4 Rocket 3.6 19:09:58 10° N 19:23:28 - S 19:15:36 80° NE
Cosmos 1092 Rocket 3.8 19:09:44 10° S 19:15:56 79° E 19:17:18 56° NNE
Meteor 2-8 Rocket 4.2 19:10:00 10° N 19:16:07 77° E 19:16:19 76° ESE
YAOGAN 1 4.4 19:16:58 10° SSW 19:20:47 30° W 19:24:36 10° NNW
COSMOS 2455 2.9 19:16:45 10° SW 19:22:47 76° NW 19:23:37 64° N
Cosmos 2344 4.2 19:14:38 10° NW 19:23:31 66° NE 19:26:40 50° E
CZ-4 R/B 4.1 19:29:05 10° SW 19:32:03 19° W 19:34:59 10° NW
ATLAS 5 CENTAUR R/B 3.5 19:39:54 10° W 19:42:38 24° NW 19:42:38 24° NW
SJ 16-02 3.7 19:44:37 10° SW 19:45:49 18° SW 19:45:49 18° SW
H-2A R/B 4.3 19:47:25 10° SW 19:51:12 22° W 19:55:04 10° NW
Cosmos 2263 Rocket 4.3 19:52:42 10° W 19:56:50 20° NW 19:58:47 17° NNW
NOSS 3-1 (C) 3.9 19:49:43 10° NW 19:56:35 80° NNW 19:56:35 80° NNW
USA 229 4.3 20:05:13 10° NW 20:10:36 54° NNW 20:10:36 54° NNW
USA 229 DEB 4.3 20:05:13 10° NW 20:10:37 55° NNW 20:10:37 55° NNW
USA 267 3.9 20:17:12 48° WSW 20:17:12 48° WSW 20:21:43 10° WSW
Lacrosse 5 4.1 20:14:53 10° WNW 20:16:54 22° W 20:16:54 22° W
ATLAS 2AS CENTAUR R/B 4.4 20:29:08 10° WNW 20:35:28 27° N 20:35:28 27° N
